Location: *
(45.9500°N, 9.0833°E)
Time: 20:04:42
(UTC+00:00)

Tiros 1 - Pass Details

Date: 16 June 2021
Orbit: 630 x 664 km, 48.4° (Epoch: 05 August)

Event Time Altitude Azimuth Distance (km) Brightness Sun altitude
Rises 14:35:32 0° 284° (WNW) 2,952 11.2 45.6°
Reaches altitude 10° 14:37:52 10° 286° (WNW) 2,047 10.6 45.2°
Maximum altitude 14:42:35 73° 11° (NNE) 683 7.9 44.4°
Drops below altitude 10° 14:47:21 10° 97° (E) 2,065 9.4 43.6°
Sets 14:49:43 0° 99° (E) 2,981 10.1 43.2°
